User: anonymous   Login
Location: La Comballaz
(46.3780°N, 7.0817°E)
Time: 17:21:17
(UTC+00:00)
Language:

STARS - Orbit

View from above orbital plane
View from above orbital plane
View from above satellite
View from above satellite

Ground track
Ground track

The orbit data is extracted from the following two-line orbital elements,

1 33498U 09002G   22333.19193901  .00001432  00000-0  19399-3 0  9998
2 33498  98.1507 227.8457 0012020  80.7415 279.5156 14.80509464745804
Epoch (UTC): 29 November 2022 04:36:23
Eccentricity: 0.0012020
inclination: 98.1507°
perigee height: 619 km
apogee height: 636 km
right ascension of ascending node: 227.8457°
argument of perigee: 80.7415°
revolutions per day: 14.80509464
mean anomaly at epoch: 279.5156°
orbit number at epoch: 74580

The dashed part of the orbit path shows where the satellite is in the earth's shadow,  

DLR